Weather History for Casper, WY

Change the Weather History Date:

Sunday, November 17, 2013

  Actual Average Record
Temperature  
Mean Temperature 32 °F 32 °F  
Max Temperature 43 °F 44 °F 70 °F (1999)
Min Temperature 21 °F 21 °F -9 °F (1958)
Degree Days  
Heating Degree Days 33 33  
Month to date heating degree days 485 490  
Since 1 July heating degree days 1374 1389  
Cooling Degree Days 0 0  
Month to date cooling degree days 0 0  
Year to date cooling degree days 618 422  
Moisture  
Dew Point 13 °F    
Average Humidity 41    
Maximum Humidity 63    
Minimum Humidity 18    
Precipitation  
Precipitation T in 0.02 in 0.20 in (1964)
Month to date precipitation 0.01 0.48  
Year to date precipitation 13.71 11.75  
Snow  
Snow T in 0.30 in - ()
Month to date snowfall 0.1 5.7  
Since 1 July snowfall 21.3 14.9  
Since 1 September snowfall 21.3 14.9  
Snow Depth 0.00 in    
Sea Level Pressure  
Sea Level Pressure 29.89 in    
Wind  
Wind Speed 20 mph (West)    
Max Wind Speed 35 mph    
Max Gust Speed 43 mph    
Visibility 10 miles    
Events      
T = Trace of Precipitation, MM = Missing Value Source: NWS Daily Summary

Daily Weather History Graph

Daily Weather History Graph

Search for Another Location

Airport:

Trip Planner

Search our weather history database for the weather conditions in past years. The results will help you decide how hot, cold, wet, or windy it might be!

Date:

Astronomy

Nov. 17, 2013 Rise Set
Actual Time 7:00 AM MST 4:40 PM MST
Civil Twilight 6:30 AM MST 5:11 PM MST
Nautical Twilight 5:55 AM MST 5:45 PM MST
Astronomical Twilight 5:22 AM MST 6:19 PM MST
Moon 4:59 PM MST (11/17) 6:57 AM MST (11/17)
Length of Visible Light 10h 41m
Length of Day
9h 39m
Full, 100% of the Moon is Illuminated
Nov 17
Full
Nov 25
Last Quarter
Dec 2
New
Dec 9
First Quarter
Dec 17
Full

Hourly Weather History & Observations

Time (MST) Temp. Windchill Dew Point Humidity Pressure Visibility Wind Dir Wind Speed Gust Speed Precip Events Conditions
12:53 AM 30.0 °F 16.0 °F 16.0 °F 56% 29.46 in 10.0 mi West 25.3 mph 33.4 mph N/A   Clear
1:53 AM 28.9 °F 15.8 °F 10.9 °F 47% 29.53 in 10.0 mi WNW 20.7 mph 28.8 mph N/A   Clear
2:53 AM 28.0 °F 14.9 °F 17.1 °F 63% 29.61 in 10.0 mi West 19.6 mph - N/A   Mostly Cloudy
3:53 AM 27.0 °F 14.7 °F 12.9 °F 56% 29.65 in 10.0 mi West 16.1 mph 28.8 mph 0.00 in   Mostly Cloudy
4:53 AM 25.0 °F 13.1 °F 10.0 °F 53% 29.72 in 10.0 mi West 13.8 mph - N/A   Clear
5:53 AM 23.0 °F 12.4 °F 10.0 °F 58% 29.78 in 10.0 mi NW 10.4 mph - N/A   Clear
6:53 AM 21.9 °F 11.0 °F 9.0 °F 58% 29.83 in 10.0 mi West 10.4 mph - N/A   Clear
7:53 AM 27.0 °F 15.2 °F 8.1 °F 45% 29.86 in 10.0 mi West 15.0 mph 24.2 mph N/A   Clear
8:53 AM 33.1 °F 22.6 °F 7.0 °F 34% 29.87 in 10.0 mi West 16.1 mph 23.0 mph N/A   Clear
9:53 AM 37.0 °F 24.5 °F 3.9 °F 25% 29.88 in 10.0 mi West 29.9 mph 39.1 mph N/A   Clear
10:53 AM 39.0 °F 28.0 °F 3.0 °F 22% 29.91 in 10.0 mi West 25.3 mph 32.2 mph N/A   Clear
11:53 AM 41.0 °F 31.4 °F 1.9 °F 20% 29.90 in 10.0 mi West 21.9 mph 36.8 mph N/A   Clear
12:53 PM 41.0 °F 30.5 °F 3.0 °F 21% 29.91 in 10.0 mi West 26.5 mph 33.4 mph N/A   Clear
1:53 PM 39.9 °F 29.5 °F 10.0 °F 29% 29.93 in 10.0 mi WSW 24.2 mph 33.4 mph N/A   Scattered Clouds
2:53 PM 42.1 °F 31.1 °F 10.9 °F 28% 29.94 in 10.0 mi WSW 31.1 mph 39.1 mph N/A   Partly Cloudy
3:53 PM 37.0 °F 26.4 °F 14.0 °F 39% 29.99 in 10.0 mi WSW 20.7 mph 31.1 mph N/A   Clear
4:53 PM 36.0 °F 25.6 °F 15.1 °F 43% 29.99 in 10.0 mi WSW 18.4 mph 24.2 mph N/A   Clear
5:53 PM 36.0 °F 25.6 °F 15.1 °F 43% 30.02 in 10.0 mi WSW 18.4 mph - N/A   Clear
6:53 PM 36.0 °F 25.6 °F 14.0 °F 41% 30.05 in 10.0 mi WSW 18.4 mph 26.5 mph N/A   Clear
7:53 PM 35.1 °F 25.2 °F 16.0 °F 46% 30.05 in 10.0 mi WSW 16.1 mph 27.6 mph N/A   Clear
8:53 PM - - 64.4 °F N/A% 30.04 in - North - - N/A   Unknown
9:45 PM 32.0 °F 21.2 °F 17.6 °F 55% 30.01 in 10.0 mi West 16.1 mph - N/A   Partly Cloudy
9:53 PM 34.0 °F 22.4 °F 17.1 °F 50% 30.03 in 10.0 mi WSW 20.7 mph - N/A   Clear
10:45 PM 32.0 °F 21.6 °F 17.6 °F 55% 30.01 in 10.0 mi WSW 15.0 mph 21.9 mph N/A   Clear
10:53 PM 30.9 °F 21.2 °F 16.0 °F 54% 30.05 in 10.0 mi WSW 12.7 mph - N/A   Clear
11:53 PM 32.0 °F 20.5 °F 16.0 °F 52% 30.04 in 10.0 mi West 18.4 mph - N/A   Clear